Showing default

FLOCK 4BE 10, 60503

Orbit data source: Space-Track

FLOCK 4BE 10, 60503 is a payload satellite owned by Planet (US) in SSO that was launched on Fri, 16 Aug 2024 UTC via an FALCON 9 launch vehicle from the Air Force Western Test Range (AFWTR). Payload-class satellites include a variety of spacecraft equipped with specific instruments for various scientific and technological missions. These include communications satellites like Starlink; space stations such as the ISS; scientific satellites like the Hubble; Earth observation satellites from companies like Planet Labs, Umbra, and HawkEye 360; GPS; miniature CubeSats for education and research; and military/defense satellites.

Loading next visibility...
Identifier
60503, 2024-149AM
Orbit
SSO
Country
Flag of USUS
Related business
Manufacturer
Planet
Mission
Operational Commercial Imaging
Bus & Motor
CUBESAT 3U, Unknown motor
Mass
5.7 kg wet, 5.7 kg dry
Launch date (UTC)
2024-08-16 (1 year ago)
Launch vehicle
FALCON 9
Launch site
Air Force Western Test Range (AFWTR)
Object type
Payload
Rocket body
Debris
Shape & HBR
Box + 2 Pan, 1.0 m
Radar Cross Section
0.072 m², Medium (>0.1 m² and < 1m²)

Expand to show TLE details & history
Last TLE update: 11 hours ago

TLE from 11 hours ago
0 FLOCK 4BE 10
1 60503U 24149AM  26035.17753043  .00221745  00000-0  26926-2 0  9998
2 60503  97.3826 119.6978 0003411 316.4259  43.6728 15.59843785 81948
Epoch: 2026-02-04T04:15Z
TLE epoch observation values (Epoch: 2026-02-04T04:15:38.629Z)
Latitude
0.00001°
Longitude
-78.56101°
Altitude
389.584 km
Speed
7.677 km/s
True Right ascension
07h 58m 47s
True Declination
0° 00' 00"
Sunlit
Object was in full shadow at epoch
Visualization orbit readout
Latitude
Unknown
Longitude
Unknown
Altitude
Unknown
Speed
Unknown
Apparent Right ascension
Unknown
Apparent Declination
Unknown
Sunlit
N/A
Visualization observer readout
Local Sidereal Time
17:12:03
Azimuth
Unknown
Elevation
Unknown
Doppler factor
Unknown
Orbital elements
Apogee altitude
387.328 km
Perigee altitude
382.714 km
Semi-major axis
6,763.158 km
Eccentricity
0.00034
Inclination
97.3826°
RAAN
119.6978°
Arg. of periapsis
316.4259°
True anomaly
43.6998°
Mean anomaly
43.6728°
Eccentric anomaly
43.6863°
Mean motion
3.90228 °/min
Orbital period
92.25 mins
BSTAR
0.0026926
Loading maneuver chart data...
Computing Atmospheric mass density...
Loading historical data...
Loading historical data...
Loading historical data...
Loading historical data...
Loading historical data...
Loading historical data...
Loading historical data...

Documentation

Showing up to 5 results
|